Location: Hains Lake
(37.8540°N, 99.8578°W)
Time: 06:06:03
(UTC+00:00)

Aureole 1 Rocket - Pass Details

Date: 11 December 2019
Orbit: 378 x 1382 km, 73.9° (Epoch: 17 January)

Event Time Altitude Azimuth Distance (km) Brightness Sun altitude
Rises 23:51:50 0° 188° (S) 2,268 6.4 -6.4°
Reaches altitude 10° 23:53:51 10° 182° (S) 1,390 5.3 -6.7°
Maximum altitude 23:56:42 51° 106° (ESE) 490 2.3 -7.3°
Drops below altitude 10° 23:59:42 10° 28° (NNE) 1,455 4.5 -7.8°
Enters shadow 00:00:46 - 25° (NNE) 1,915 5.1 -8.0°
